Location: Coopersdale
(40.3556°N, 78.9372°W)
Time: 19:27:32
(UTC+00:00)

Transit 4A - Pass Details

Date: 22 January 2021
Orbit: 866 x 978 km, 66.8° (Epoch: 26 February)

Event Time Altitude Azimuth Distance (km) Brightness Sun altitude
Rises 01:52:02 0° 239° (WSW) 3,664 11.6 -39.9°
Reaches altitude 10° 01:54:54 10° 249° (WSW) 2,723 10.9 -40.4°
Enters shadow 01:59:16 29° 290° (WNW) 1,702 9.6 -41.3°
Maximum altitude 02:00:31 31° 311° (NW) 1,630 - -41.5°
Drops below altitude 10° 02:06:08 10° 13° (NNE) 2,720 - -42.6°
Sets 02:09:01 0° 23° (NNE) 3,659 - -43.1°
